sat.trackr.live / text

‹ back to catalog

STARLINK-31361

NORAD 58974 · 2024-031K

PAYLOAD ACTIVE UNKNOWN

§ Identity

Operator
Country
US
Launch date
2024-02-15
Launch site
AFWTR
Launch vehicle
Mass (kg)
RCS (m²)

Purposes: comms

External: N2YO · Heavens-Above · Gunter

§ Orbital elements

Epoch: 2026-05-24T15:36:33.181920Z

Period
94.11 min
Inclination
53.1610°
Eccentricity
0.0001299
Mean motion
15.30203065 rev/d
Perigee alt
474.3 km
Apogee alt
476.1 km
Semi-major
6,853.3 km
B*
-4.8845e-6
RAAN
303.8212°
Arg perigee
77.4604°
Mean anomaly
282.6542°
Rev number
12,816

§ Raw data

STARLINK-313611 58974U 24031K   26144.65038405 -.00000504  00000+0 -48845-5 0  99952 58974  53.1610 303.8212 0001299  77.4604 282.6542 15.30203065128161

JSON: /api/v1/satellites/58974 · /tle

For live sub-satellite position, see the globe view (requires WebGL).

§ Visibility from observer

Set your observer location to see the next 7 days of passes ≥ 10°. The values pass through the URL so the page stays shareable.

No JS? Fill the form by hand. The geolocation button needs JavaScript.